Temp
4 4 5 5 5 5 5 5 5 7 8 7 7 7 8 8 9 9 5 6 4 0 1 1 2 5 5 5 7 6 7 8 6 8 8 7 7 7 7 8 8 9 8 7 9 8 8 10 11 12 9 8 9 8
3 4 4 4 4 5 5 5 7 10 9 8 8 7 7 8 8 9 7 5 5 1 1 2 2 3 2 3 3 3 6 5 6 5 4 5 7 5 6 8 7 9 8 8 8 8 8 8 9 7 7 7 8 8
3 4 4 4 4 4 5 6 7 8 8 8 7 7 7 8 8 9 6 6 6 1 2 2 2 4 4 4 5 5 3 4 4 3 3 5 8 5 6 6 8 8 6 8 9 8 8 7 7 7 7 7 6 6
3 4 4 4 4 4 4 7 7 8 7 7 7 7 7 7 8 9 7 6 6 2 2 2 4 3 4 5 5 5 4 3 2 2 4 3 7 4 6 6 6 6 6 7 7 7 7 6 6 6 5 5 5 5
3 3 4 4 4 4 5 6 7 7 7 7 7 7 7 7 7 8 7 7 7 5 2 2 2 4 4 5 5 5 4 2 2 4 4 5 3 4 3 4 4 4 6 7 7 7 7 6 5 5 5 4 3 3
3 4 4 4 4 4 6 6 7 7 7 6 6 7 7 7 8 8 5 6 7 6 2 1 2 2 4 4 3 2 1 -0 -0 2 2 1 2 4 4 5 6 4 4 5 7 5 5 4 4 4 4 3 3 3
3 3 4 4 4 4 6 6 6 6 6 6 6 6 6 7 7 5 4 5 6 7 1 0 -0 2 3 2 1 1 1 -0 1 0 2 2 2 3 4 4 6 4 5 5 3 4 5 4 4 3 3 4 4 4
3 3 4 4 4 4 5 6 6 6 6 6 6 6 6 6 6 5 4 5 6 4 2 -0 1 2 3 2 2 -0 1 1 0 1 1 2 2 2 3 4 5 4 4 4 3 5 4 2 2 3 4 3 3 4
3 3 4 4 4 4 5 6 5 5 6 6 6 6 6 7 4 5 5 5 6 5 2 1 1 1 2 1 1 1 1 2 0 2 2 3 3 3 5 4 3 2 4 4 2 2 2 3 3 3 3 4 3 3
3 3 4 4 4 4 5 5 5 5 6 6 6 6 4 4 4 5 5 4 2 2 2 2 1 3 2 1 1 2 1 2 -0 3 1 2 3 3 3 3 3 2 3 2 3 3 2 3 2 3 3 3 3 3
3 3 4 4 4 4 5 5 5 5 6 6 3 2 3 3 5 2 2 2 2 3 2 1 1 3 2 2 2 2 0 -1 -0 2 2 1 1 3 3 2 1 2 2 2 4 4 3 3 2 2 3 3 3 3
4 4 4 4 4 4 4 5 4 4 4 5 4 4 4 3 1 2 2 2 2 4 1 1 1 2 1 1 2 2 1 -1 2 1 2 1 3 3 2 2 1 1 1 2 3 3 2 2 3 2 2 2 2 2
3 4 4 4 4 4 4 4 4 4 4 4 3 2 2 1 2 2 4 2 -0 2 1 1 3 1 1 2 1 1 -0 1 3 4 3 2 2 2 1 1 1 1 2 2 2 3 2 2 2 2 1 2 2 1
3 4 4 5 4 4 4 4 3 4 3 2 3 4 2 -0 1 3 4 3 1 2 2 2 1 2 2 2 2 0 3 3 3 1 2 2 1 2 0 1 1 1 1 1 2 2 2 2 1 2 2 2 1 -0
3 4 5 5 4 4 4 4 3 3 3 2 1 4 2 1 0 0 -2 0 -0 3 1 1 0 2 -0 1 2 3 3 2 2 3 2 -1 1 0 0 0 1 1 0 0 1 0 1 1 0 1 2 1 1 0
3 4 4 4 4 4 4 4 2 2 1 -1 -3 -1 0 -0 2 2 -2 1 0 3 -0 -1 -1 -1 1 1 1 -0 1 1 3 0 -1 -3 -1 -0 0 0 0 1 0 1 1 1 1 -0 -0 0 1 1 0 -0
3 3 4 4 4 4 4 3 1 1 2 0 -2 -2 0 -1 1 1 2 3 2 2 3 -1 1 2 1 -2 -0 0 1 1 -2 -3 -1 -1 0 0 0 0 1 1 1 1 0 1 1 1 0 -1 -3 1 0 -0
3 3 4 5 4 4 2 1 1 1 1 -2 -2 -2 0 1 2 2 1 2 2 1 1 1 -1 -0 1 2 1 1 -1 -4 -2 2 0 -0 -0 -1 0 0 1 1 1 0 0 0 -1 -1 -3 -2 -1 -0 -2 -1
3 4 3 4 3 2 1 -0 -0 1 -3 -4 -3 -1 -0 1 -0 0 1 1 0 1 1 -1 -1 -0 2 0 0 -4 -4 1 1 1 -1 -1 -0 -0 -0 -0 -0 -0 -1 -1 -1 -1 -1 -1 -2 -2 -2 -2 -3 -2
3 4 3 3 4 1 0 -1 -1 -1 -1 -2 -0 0 -0 -0 -1 -0 2 1 1 -0 1 0 3 3 2 1 -2 -2 -2 -2 -0 -1 -1 -2 -2 -1 -2 -1 -2 -2 -2 -2 -2 -2 -2 -2 -2 -2 -3 -3 -3 -3
3 3 2 2 1 -0 -0 -1 -2 -1 -2 -1 -0 -0 -0 -0 0 -1 -1 -1 -1 -2 -0 -0 2 0 -4 -3 -1 -1 -2 -1 0 1 0 -4 -3 -2 -3 -3 -3 -3 -4 -5 -5 -5 -5 -5 -5 -4 -4 -4 -4 -4
3 3 2 2 -1 -2 -2 -3 -1 -3 -1 -1 -1 -1 1 1 1 -1 -3 -1 -2 -0 -1 0 -2 -3 -3 -2 -2 -0 -0 -0 -1 -1 -1 -1 -4 -7 -6 -4 -3 -7 -6 -6 -6 -7 -6 -6 -5 -5 -5 -5 -5 -4
2 2 0 -0 -0 -1 -2 -3 -1 -2 -0 -1 -2 -0 -1 -1 -2 -4 1 -2 -2 -3 -3 -4 -5 -4 -4 -4 -2 -2 -1 -1 -4 -3 -2 -3 -3 -3 -4 -4 -5 -5 -7 -6 -6 -6 -6 -7 -6 -6 -6 -6 -6 -6
3 1 1 1 -0 -1 -2 -2 -1 -1 -1 -1 -1 -1 -2 -2 -3 -2 1 -2 -1 -3 -3 -5 -3 -5 -5 -5 -6 -7 -4 -1 -4 -4 -3 -3 -8 -5 -4 -4 -5 -6 -7 -7 -7 -6 -7 -7 -8 -8 -8 -8 -8 -8
2 1 1 -1 -1 -1 -1 -1 -1 -1 -1 -1 -2 -2 -3 -4 -1 -1 -1 -0 -2 -2 -3 -5 -4 -4 -2 -7 -8 -6 -4 -2 -4 -7 -4 -3 -4 -6 -6 -6 -7 -8 -8 -7 -8 -8 -8 -9 -9 -10 -10 -10 -9 -9
0 -1 1 -0 -0 -0 -2 -2 -2 -2 -1 -1 -1 -4 -4 -1 -0 2 1 -0 -2 -2 -3 -3 -2 -5 -6 -6 -6 -7 -4 -2 -1 -5 -4 -4 -4 -5 -12 -11 -12 -10 -9 -8 -9 -10 -10 -11 -11 -11 -11 -10 -10 -10
-0 -1 -2 -2 -2 -3 -3 -2 -1 -1 -0 -1 -3 -3 -1 3 4 2 -4 -5 -4 -5 -3 -2 -2 -2 -4 -7 -5 -3 -3 -3 -2 -3 -4 -5 -6 -6 -7 -9 -11 -9 -9 -10 -10 -11 -11 -12 -12 -12 -12 -11 -10 -10
-1 -2 -2 -2 -3 -6 -1 -0 0 0 -1 -2 -1 0 4 4 3 -5 -6 -8 -8 -7 -4 -3 -2 -1 -3 -4 -3 -4 -5 -4 -4 -5 -6 -7 -8 -8 -9 -9 -9 -10 -10 -10 -11 -11 -12 -12 -11 -11 -11 -11 -11 -11
-2 -2 -2 -5 -6 -6 -5 -1 -1 -3 -2 0 1 0 -2 -6 -8 -8 -9 -9 -8 -6 -7 -8 -9 -5 -6 -6 -5 -4 -4 -4 -5 -10 -10 -12 -15 -10 -9 -9 -10 -10 -10 -10 -10 -11 -11 -11 -10 -11 -12 -12 -12 -13
-3 -3 -4 -7 -7 -7 -7 -7 -6 -7 -6 -5 -5 -6 -6 -8 -10 -10 -9 -8 -6 -5 -6 -6 -8 -6 -7 -7 -10 -8 -7 -5 -5 -5 -12 -14 -12 -10 -10 -10 -10 -10 -10 -11 -11 -11 -11 -12 -11 -11 -11 -12 -12 -13
-3 -5 -6 -7 -8 -9 -8 -8 -7 -6 -6 -6 -6 -5 -6 -8 -9 -9 -8 -8 -7 -8 -8 -9 -8 -5 -6 -7 -8 -11 -11 -8 -7 -8 -8 -9 -10 -10 -10 -10 -10 -10 -11 -11 -12 -12 -12 -12 -12 -13 -13 -13 -13 -14
-4 -6 -6 -7 -6 -7 -7 -6 -6 -5 -6 -6 -7 -7 -7 -5 -5 -8 -9 -9 -8 -8 -6 -7 -7 -7 -5 -5 -4 -5 -5 -7 -8 -9 -10 -10 -10 -10 -10 -10 -10 -11 -11 -11 -12 -12 -12 -12 -13 -13 -14 -14 -14 -14
-3 -4 -6 -5 -5 -5 -5 -4 -3 -4 -5 -6 -8 -9 -9 -6 -4 -8 -10 -9 -7 -6 -6 -5 -5 -5 -6 -6 -6 -7 -8 -9 -9 -10 -11 -11 -10 -10 -10 -10 -10 -11 -11 -11 -11 -11 -12 -12 -12 -12 -13 -13 -13 -13
Height
746 741 735 728 722 719 713 708 700 693 690 692 696 699 703 708 712 716 723 721 724 741 751 748 747 744 745 747 752 758 758 758 765 769 771 779 781 782 782 782 779 774 786 795 787 797 797 771 767 769 779 779 778 779
742 739 732 727 722 717 710 702 695 692 691 690 697 704 709 713 719 721 724 726 724 730 751 750 751 751 750 749 753 761 760 761 763 776 783 781 776 787 787 784 782 780 779 784 785 781 774 775 771 775 776 777 778 779
739 732 729 726 721 716 711 703 697 695 692 694 699 706 713 716 722 725 728 727 727 739 750 752 756 753 751 750 749 756 763 761 764 765 775 776 768 782 783 784 776 775 777 777 775 772 773 775 775 775 774 776 778 780
736 731 726 724 721 716 709 705 702 700 699 701 706 711 716 722 725 727 728 729 729 737 753 764 757 757 756 751 749 749 751 757 762 766 771 779 770 780 780 775 776 775 777 777 779 774 776 775 774 775 777 778 779 779
732 728 725 721 720 717 710 707 706 706 707 708 711 715 721 726 729 730 731 730 730 733 755 763 762 762 759 755 753 753 754 759 766 771 773 774 780 781 786 783 780 771 769 772 771 764 765 768 772 775 777 779 780 780
730 726 724 720 720 718 712 710 709 709 711 713 716 721 725 728 731 733 736 734 732 731 745 767 766 764 762 760 759 759 761 765 771 774 781 782 781 780 781 778 759 760 761 759 760 765 767 770 772 775 777 778 778 779
728 725 723 720 718 718 715 713 713 714 716 718 721 725 727 730 733 737 739 736 734 733 747 770 773 766 764 763 765 766 766 770 771 779 780 782 782 780 779 777 753 758 758 760 761 763 769 770 771 773 775 776 777 777
725 724 723 721 719 717 715 715 716 718 720 724 725 727 731 734 737 738 738 737 736 736 745 768 772 769 766 769 771 772 773 774 778 781 783 780 782 783 776 758 754 757 760 760 762 762 763 766 770 773 774 775 775 775
717 720 720 721 719 718 717 717 720 722 724 727 730 734 736 737 737 737 738 739 737 740 752 760 767 775 767 773 774 774 775 779 782 780 780 781 779 774 749 751 754 756 756 758 763 764 766 768 770 771 772 772 773 773
712 713 715 718 718 719 718 717 721 725 729 731 735 736 737 735 736 738 741 741 740 743 746 754 760 761 766 771 776 776 778 780 792 779 782 780 767 749 747 747 748 751 753 757 763 765 767 768 769 769 770 770 771 771
707 710 710 713 716 719 719 720 722 728 732 733 735 737 738 738 739 741 747 748 748 748 750 754 756 755 764 769 771 774 782 787 794 780 780 786 771 747 741 744 745 747 750 753 755 757 760 762 764 766 766 766 767 768
700 703 705 708 712 716 719 720 720 729 732 734 736 737 739 740 746 748 750 748 746 739 749 750 753 755 761 761 766 773 780 788 785 779 781 779 747 739 740 742 744 747 750 753 755 757 759 760 761 762 763 764 764 764
693 695 698 702 706 712 718 719 720 727 733 735 736 737 741 745 749 745 738 746 753 740 742 744 748 753 758 758 767 772 784 783 774 771 767 753 740 737 739 741 744 746 749 751 754 756 757 758 760 760 761 761 761 760
686 687 689 693 698 706 714 717 721 724 734 735 736 731 734 743 729 717 714 717 723 725 731 737 745 747 751 758 762 776 769 770 774 781 761 741 737 735 739 740 743 746 748 751 753 754 755 756 757 758 757 757 757 756
678 680 679 682 689 700 710 715 718 721 730 731 732 719 719 710 713 711 716 719 723 721 729 737 744 745 757 760 759 762 764 773 763 752 741 736 732 734 739 741 743 745 748 751 751 752 753 754 755 754 754 753 753 751
670 672 672 678 685 696 709 715 718 719 725 729 729 722 713 714 710 709 717 716 717 720 728 733 747 757 751 754 760 765 765 760 738 739 734 735 733 735 737 740 743 745 747 749 750 750 751 752 752 751 750 749 749 747
664 661 667 673 682 694 705 709 715 716 717 716 717 712 706 709 703 702 702 705 711 721 723 735 741 743 749 766 759 752 748 732 733 734 731 732 731 734 737 741 743 744 746 748 749 749 748 748 748 747 747 744 744 743
654 656 662 666 676 685 694 700 706 704 704 709 711 707 704 701 700 699 700 702 710 718 721 721 730 741 740 738 740 726 728 733 730 727 731 732 734 736 738 740 743 745 745 745 746 745 745 745 745 744 743 741 739 738
649 654 657 663 671 681 688 694 695 694 704 707 706 703 702 700 700 699 699 703 705 708 714 722 730 733 720 718 717 725 726 721 724 729 732 734 735 736 739 741 742 743 742 743 743 743 743 743 742 741 740 738 736 734
646 651 654 664 672 675 681 687 687 690 698 700 699 701 701 700 700 701 701 703 708 712 715 720 710 705 704 705 708 710 715 718 721 729 734 736 737 737 739 740 741 741 741 742 742 741 741 740 740 739 737 735 733 730
643 646 656 664 668 671 674 681 685 689 695 697 697 699 701 700 702 706 708 707 712 714 713 706 702 703 705 704 703 705 711 715 719 722 727 736 735 737 738 739 741 741 742 742 742 741 741 739 738 736 734 731 729 727
629 640 651 662 667 672 675 678 679 685 690 693 699 701 700 699 702 706 711 710 711 701 701 700 702 704 706 706 705 707 712 716 719 722 725 728 734 737 738 739 740 741 742 742 742 741 740 738 736 734 731 728 726 723
622 634 645 657 666 670 678 678 677 683 687 698 702 700 703 704 706 710 705 703 698 695 696 699 701 703 706 709 707 710 715 716 720 723 726 729 732 734 737 738 739 739 740 741 740 740 738 737 734 732 730 727 724 721
619 628 638 648 656 668 673 674 673 679 687 691 695 700 706 707 709 708 699 697 689 692 696 698 698 706 712 710 711 713 715 717 721 725 727 729 733 735 736 737 737 738 739 739 739 739 737 736 734 732 729 727 724 721
612 627 633 644 651 658 663 668 668 671 676 684 691 699 703 707 701 704 696 684 687 689 693 696 698 702 704 711 713 714 716 718 721 725 728 730 731 734 736 737 738 738 739 738 737 736 735 733 731 729 727 725 722 719
612 624 622 628 638 642 655 662 663 668 667 676 682 695 699 695 695 679 675 673 678 682 684 688 692 701 705 704 709 714 716 718 720 723 728 729 731 732 735 737 738 738 738 737 736 734 732 731 729 727 725 723 720 717
610 617 622 624 628 636 643 645 647 650 657 664 679 689 683 670 666 667 675 675 677 676 679 682 686 692 698 703 707 711 714 718 720 723 727 729 730 731 733 735 736 737 737 736 734 732 730 728 727 724 722 719 717 714
605 612 617 624 628 635 629 632 636 639 646 653 658 665 653 653 658 676 676 677 678 678 678 684 689 692 696 701 705 709 715 718 720 724 727 730 731 732 733 734 734 734 734 733 731 729 728 726 723 721 718 715 713 711
607 611 615 628 636 638 636 628 629 635 638 636 640 653 665 674 679 678 679 679 680 678 683 688 693 694 699 704 707 710 714 716 720 727 731 733 732 732 732 732 732 732 731 730 728 726 725 723 720 718 716 712 709 706
610 612 621 636 639 642 644 643 641 640 640 643 648 660 669 677 681 681 681 682 682 681 684 688 691 694 699 702 708 712 715 717 720 721 727 729 728 729 728 729 729 729 728 726 724 722 720 718 716 714 711 708 706 703
612 618 630 640 647 647 645 644 643 643 645 651 651 653 665 676 681 682 683 683 683 685 688 692 695 697 698 703 706 710 716 718 720 721 723 724 724 725 726 726 726 725 724 722 720 719 717 716 714 711 709 706 704 702
612 622 628 638 645 645 643 641 643 646 651 656 662 663 669 670 679 684 684 685 685 687 690 692 695 698 701 703 706 709 712 715 718 720 721 722 722 723 723 723 722 722 720 719 718 717 716 714 713 710 708 705 702 698
615 618 624 631 638 637 640 636 639 650 657 662 671 675 677 673 674 682 683 684 686 688 691 694 697 699 702 705 708 711 713 715 717 718 718 720 721 721 721 721 720 719 718 717 717 716 714 711 710 708 706 703 700 696
Wind_Speed
27 29 29 24 23 25 28 31 32 24 13 6 18 27 28 24 16 7 10 7 3 3 3 4 4 3 2 2 5 4 4 3 3 3 2 2 2 4 3 3 4 5 5 3 2 2 5 0 2 3 4 1 3 3
24 28 28 22 21 24 29 33 29 9 1 13 27 26 28 23 12 5 6 7 14 6 3 3 11 15 4 2 4 3 3 2 3 4 1 3 2 1 4 3 1 2 5 4 7 4 2 1 1 1 3 4 3 4
22 22 25 21 21 22 27 30 22 7 7 25 33 32 25 18 9 7 8 6 8 3 3 5 4 11 16 6 1 4 1 3 2 1 3 2 2 3 4 4 3 2 3 3 2 2 3 2 2 2 2 4 4 3
21 21 22 18 19 21 25 24 4 5 12 26 33 32 25 14 9 6 4 6 6 4 4 2 10 5 13 7 2 2 8 6 5 2 3 2 2 2 3 1 3 4 5 5 3 2 0 4 3 4 3 4 3 3
18 20 21 15 16 19 20 21 4 13 20 25 28 28 21 14 7 6 6 7 5 4 3 1 3 9 15 14 16 14 12 4 3 3 2 1 2 2 0 1 3 5 6 5 5 6 4 2 6 4 4 2 3 3
16 18 19 12 13 15 18 5 10 18 20 22 24 22 17 14 10 8 2 2 7 6 4 2 2 4 10 11 18 13 7 4 3 3 2 1 1 1 2 3 4 4 3 4 4 4 3 5 5 3 5 3 1 2
16 16 15 10 10 13 11 1 12 18 18 19 19 16 16 12 15 2 2 2 7 7 3 3 2 3 4 4 4 4 6 2 3 2 2 2 1 1 2 3 3 6 5 4 6 7 3 3 4 5 4 3 2 5
15 15 13 9 7 11 8 9 14 18 18 17 16 16 15 12 5 1 5 6 4 10 3 3 1 1 3 2 2 3 2 2 4 2 1 2 0 1 4 6 2 4 5 5 6 2 3 6 6 4 4 2 1 3
14 13 13 9 7 7 4 13 19 21 20 19 18 15 9 3 2 3 6 2 6 3 3 2 4 3 1 2 1 2 2 2 1 1 1 2 1 4 6 6 7 7 7 7 5 5 5 4 5 4 4 2 2 3
15 12 11 11 9 8 3 16 22 20 20 22 17 0 2 1 11 9 1 2 4 3 2 2 2 3 3 1 1 2 2 2 1 1 2 2 4 5 5 5 6 9 7 9 6 3 3 3 6 6 5 3 3 3
15 15 12 12 13 13 10 17 24 22 21 4 2 2 2 7 3 2 0 2 1 1 1 3 3 5 1 3 3 1 2 0 2 3 3 2 4 4 3 7 6 8 8 7 4 3 6 5 5 6 5 6 7 9
17 16 15 14 15 18 15 21 30 24 11 4 5 5 3 2 2 3 2 2 1 4 2 4 4 3 3 2 3 2 3 2 3 3 2 3 4 4 3 6 6 7 7 7 6 5 6 6 6 6 5 6 9 11
19 18 16 17 18 23 23 21 37 23 16 3 2 2 2 1 1 7 7 3 2 5 5 4 4 4 2 2 3 3 3 3 3 3 4 5 3 2 5 6 6 6 8 6 5 4 6 6 6 7 8 11 12 14
21 20 20 25 25 31 30 20 38 28 4 2 4 4 6 3 6 5 5 4 3 4 9 5 4 3 2 3 3 5 2 3 3 3 6 3 6 5 6 4 6 7 7 6 6 6 6 7 8 9 11 12 12 15
21 20 20 23 31 36 35 20 38 26 5 3 3 6 7 2 1 2 2 4 1 8 6 4 3 3 1 3 2 4 5 4 6 5 3 3 5 7 7 5 6 6 6 4 5 5 7 8 8 11 11 11 12 14
20 16 20 30 32 33 36 26 20 8 3 2 3 1 1 3 2 3 2 3 2 7 2 3 4 4 2 4 3 6 8 7 4 3 3 2 5 6 6 6 5 5 6 6 5 6 8 8 10 11 12 14 14 15
18 8 22 30 29 37 29 22 6 4 5 5 4 2 2 2 3 3 4 4 5 4 3 3 4 5 4 3 2 4 5 3 3 2 2 3 5 6 6 5 5 6 6 5 5 7 9 10 9 10 8 17 14 16
11 21 19 22 26 39 19 7 5 6 6 3 2 2 2 2 2 2 3 7 5 3 3 5 5 3 5 6 3 4 3 1 2 3 3 2 4 5 7 5 5 4 3 4 6 7 7 8 8 10 14 17 16 17
19 27 41 46 39 14 4 4 5 5 3 2 2 1 1 1 1 0 3 4 2 3 5 2 3 4 4 3 4 3 2 4 3 3 2 4 7 8 6 5 4 2 1 2 4 6 8 8 11 14 15 15 14 18
30 40 52 43 28 4 3 1 3 4 3 2 1 2 1 1 2 2 6 2 2 2 2 2 4 3 4 3 3 3 3 4 6 4 3 2 4 6 5 3 1 1 3 3 4 5 8 9 10 12 13 14 15 17
35 40 51 32 3 4 3 3 2 3 3 2 2 1 1 1 2 2 2 0 2 2 2 3 3 2 2 1 6 7 5 5 4 4 4 3 4 4 5 3 1 1 1 3 4 7 9 9 14 14 15 16 18 18
16 47 17 14 3 2 2 0 3 3 3 4 3 0 2 2 2 1 1 1 3 3 3 3 2 3 1 3 4 10 14 15 12 12 11 13 3 2 1 2 3 1 3 3 4 6 9 11 13 14 16 19 19 19
40 22 7 5 3 2 2 2 3 2 5 4 2 3 1 1 1 1 2 2 3 2 2 2 3 5 4 4 15 14 11 14 4 7 8 8 7 6 6 4 2 2 2 3 6 9 10 11 12 14 17 18 20 21
29 5 5 6 4 4 4 3 2 4 3 3 3 4 2 2 1 0 3 3 2 3 3 4 6 5 2 2 3 2 6 9 13 10 8 9 4 3 3 2 2 2 2 4 5 8 11 14 15 18 19 20 20 20
7 6 7 5 4 5 4 5 4 3 4 4 5 3 4 2 3 3 3 3 4 4 4 4 3 2 4 2 2 5 9 14 10 4 7 6 8 6 4 4 3 3 3 6 9 13 15 16 17 18 19 18 18 16
5 4 6 5 5 6 7 6 7 6 5 4 3 3 2 3 3 6 4 5 4 6 7 9 8 4 1 2 4 3 11 11 10 7 6 7 5 4 3 2 1 3 4 9 12 14 16 17 18 19 19 21 20 21
5 3 2 1 4 4 4 3 2 3 5 6 6 6 4 5 6 3 1 1 1 3 14 16 15 7 6 7 14 16 17 11 8 11 11 6 2 2 3 4 3 0 6 9 10 10 13 16 17 19 20 21 21 19
3 4 8 6 3 1 5 5 5 5 4 4 8 6 9 7 4 1 1 1 4 14 20 15 13 19 24 24 24 22 16 13 13 13 13 10 8 7 6 5 6 5 8 9 10 11 12 14 18 21 21 18 16 23
3 3 4 4 3 3 2 3 4 2 3 6 4 4 4 2 2 2 2 6 13 17 16 15 17 28 28 23 18 15 17 16 11 4 3 1 1 4 1 6 6 6 8 9 10 10 12 15 16 16 19 21 22 21
3 1 4 3 3 2 0 1 0 2 3 3 3 3 3 2 3 2 7 6 6 8 13 19 23 20 15 15 14 12 10 8 6 5 4 4 4 1 3 4 6 7 9 11 14 16 15 15 17 18 19 20 21 20
2 3 4 3 2 1 1 1 1 2 3 3 4 4 4 3 2 4 3 4 14 20 20 13 16 20 21 18 13 8 4 9 7 6 6 5 5 5 5 6 8 9 11 13 13 14 15 16 18 20 21 20 21 20
2 3 4 4 2 2 1 2 2 3 3 3 3 2 2 3 3 2 5 12 15 9 10 17 16 13 16 15 13 11 10 12 9 5 5 6 6 6 6 8 9 11 12 12 11 11 13 15 17 18 18 19 20 21
3 3 3 4 3 3 1 2 3 3 4 3 4 3 3 1 4 2 8 10 11 13 20 19 20 19 17 15 13 13 12 8 7 5 4 3 2 4 6 9 9 9 9 8 9 11 13 14 15 16 17 18 19 20
Wind_Direction
325 326 330 328 333 336 334 333 337 336 314 94 154 131 145 135 131 69 50 38 152 99 21 359 7 74 66 95 131 188 83 3 48 73 122 181 143 209 104 171 179 163 135 186 116 125 276 235 76 149 197 69 104 83
324 326 327 327 334 336 338 341 358 36 116 161 158 144 141 129 119 113 68 54 78 79 131 89 66 46 20 342 123 32 139 132 159 92 50 122 138 110 149 205 329 197 175 180 181 210 250 16 111 158 175 146 143 128
319 325 325 325 333 339 340 350 352 8 48 155 159 157 137 121 124 103 113 52 75 92 60 44 348 344 17 6 45 114 300 146 84 162 153 143 135 131 165 228 160 249 163 171 116 200 208 161 122 132 136 131 124 107
317 321 325 324 331 338 346 354 21 88 147 155 155 161 153 126 117 145 47 45 74 102 98 323 16 16 355 26 59 74 130 101 99 66 91 118 140 177 203 207 175 194 135 171 267 261 342 249 213 164 126 83 78 48
314 316 324 323 330 336 351 343 168 154 148 151 158 161 172 169 151 151 33 48 72 116 128 163 314 19 29 62 75 91 92 84 73 68 65 151 113 124 16 50 245 186 178 167 216 200 159 198 164 153 133 107 64 30
310 315 323 317 323 332 7 18 149 149 150 144 152 165 171 163 154 126 0 49 102 108 101 96 293 356 9 43 56 47 49 64 80 106 117 38 284 116 139 227 248 190 189 166 185 145 105 123 127 125 136 141 126 45
303 310 322 310 316 326 356 163 161 153 145 152 151 150 154 159 162 91 223 153 127 96 89 90 7 333 348 23 33 28 35 62 83 113 86 149 222 107 178 225 241 191 179 162 142 119 85 177 190 164 149 173 13 337
296 304 307 302 298 314 356 161 166 161 157 155 148 141 149 155 144 76 128 135 91 92 75 106 52 360 16 42 56 360 44 34 21 116 80 145 82 68 252 233 213 154 134 132 158 81 130 127 126 160 168 159 1 310
283 292 301 288 262 292 36 171 168 164 160 154 144 147 145 211 119 140 144 126 65 79 119 106 140 192 90 78 74 36 47 63 300 92 223 122 195 231 227 189 186 176 174 173 135 111 122 136 167 180 200 219 269 292
276 277 287 269 244 245 223 162 164 161 153 143 144 140 253 155 133 135 112 21 18 358 52 96 127 126 125 137 65 97 16 127 134 229 119 208 257 258 229 218 185 173 163 137 124 163 177 216 205 211 207 207 242 257
268 272 274 248 234 219 211 171 162 155 154 139 99 198 111 134 135 41 184 143 167 136 162 141 147 132 218 126 152 192 168 125 108 243 143 274 272 245 223 181 180 173 165 178 145 148 179 175 185 202 213 223 243 261
261 262 263 234 227 215 206 174 157 160 168 183 148 121 158 58 38 124 224 356 203 215 163 133 163 153 164 146 108 181 120 56 211 145 122 260 249 232 184 176 171 165 162 174 182 172 175 182 189 208 232 249 263 270
251 260 254 246 229 211 201 181 175 163 168 129 21 74 117 195 53 173 187 249 231 181 175 161 144 141 122 102 79 114 96 194 124 193 234 231 251 225 184 149 137 151 159 157 167 186 199 214 225 231 249 262 270 274
247 258 258 248 221 204 197 188 172 161 143 179 155 234 192 204 237 187 182 169 191 137 145 132 125 138 141 95 143 104 185 127 186 243 235 241 218 192 169 154 136 171 175 175 188 202 213 227 245 254 254 270 277 277
260 258 259 219 198 193 192 191 174 156 165 215 184 230 206 200 163 141 130 100 193 149 131 112 73 96 90 110 156 124 162 227 210 231 231 226 191 157 164 166 161 167 175 191 204 215 234 243 244 263 269 275 281 285
246 264 195 186 184 188 185 177 161 151 159 204 238 253 275 62 179 163 171 131 187 148 105 67 112 85 144 144 131 208 145 216 236 216 228 176 165 160 157 168 174 165 178 198 217 237 250 249 249 262 280 280 288 289
239 197 189 197 194 193 205 163 151 180 207 199 243 221 223 267 208 167 149 149 140 138 182 127 110 185 102 81 222 195 207 219 210 241 206 189 166 163 150 150 166 181 200 227 254 259 264 279 272 273 276 290 299 294
218 187 189 194 184 152 154 150 168 186 209 193 189 214 207 251 186 140 122 142 138 169 175 187 124 145 182 172 230 223 205 185 156 127 148 128 115 124 143 150 174 200 234 264 270 279 275 272 270 272 288 299 300 299
187 172 156 156 154 144 142 172 181 165 202 186 197 203 185 160 16 44 131 119 94 127 117 67 102 185 210 210 190 187 158 157 151 156 133 109 126 128 131 131 134 151 276 301 297 288 289 289 287 295 299 301 292 299
186 171 165 157 162 121 123 126 135 126 163 182 126 148 109 93 84 33 144 88 103 112 85 164 216 219 182 199 177 146 150 148 134 116 118 144 129 131 126 137 159 305 331 330 318 322 324 323 329 328 319 310 302 298
167 168 165 161 122 87 103 138 113 137 143 111 113 113 78 57 85 116 154 224 79 198 228 216 213 131 359 107 131 122 125 134 149 144 159 162 174 145 136 128 49 25 25 345 354 342 347 340 332 332 331 323 319 312
158 152 149 172 100 92 93 117 123 143 101 122 112 71 123 119 128 133 186 54 221 222 193 186 174 134 144 146 121 122 135 124 116 109 104 121 123 109 144 152 114 62 22 23 16 351 350 353 349 346 344 336 331 322
140 143 111 113 116 88 141 181 104 168 126 150 133 120 121 154 140 308 205 222 251 211 149 133 119 101 95 117 115 111 128 134 121 128 126 123 119 125 136 139 140 120 42 48 15 2 358 353 357 349 348 345 347 346
136 101 135 151 131 135 144 186 145 120 114 135 132 126 192 164 137 105 245 234 209 123 160 157 136 97 61 49 84 120 133 149 125 118 134 138 117 136 140 93 77 101 73 12 1 355 352 349 344 345 346 344 346 344
120 168 144 143 139 132 146 145 166 128 130 137 125 145 175 163 167 201 230 227 164 173 167 153 127 149 141 104 87 123 139 153 141 133 160 160 134 130 108 100 107 107 33 356 354 344 343 345 349 348 346 347 340 337
108 181 153 146 144 150 170 151 177 162 128 125 127 112 149 142 163 234 215 178 169 181 172 178 162 142 124 149 140 150 167 149 136 109 148 160 145 128 156 137 98 197 352 352 345 340 337 340 339 338 336 335 332 331
131 147 143 89 129 133 101 93 126 130 138 145 154 161 168 173 217 229 117 51 179 194 167 167 160 145 145 135 131 134 139 133 118 121 131 142 150 125 121 128 171 239 331 337 334 330 325 327 326 325 320 324 326 326
112 149 153 176 120 141 136 122 154 160 150 153 133 170 172 195 200 201 68 11 176 143 136 143 159 157 143 140 138 134 127 128 121 115 107 105 116 113 89 52 6 349 331 337 336 329 329 328 322 320 316 313 319 318
87 125 104 66 87 64 48 135 156 145 133 165 121 143 150 74 23 1 49 153 148 124 117 119 108 126 122 123 123 123 134 141 131 108 124 210 345 197 196 348 353 352 341 342 342 337 332 326 323 326 317 316 318 321
97 78 91 64 69 102 311 334 63 88 43 64 108 111 95 70 22 62 126 158 153 136 133 139 141 136 138 132 124 108 116 131 133 138 154 191 187 184 10 18 10 2 347 345 345 341 344 344 342 342 341 341 341 339
122 97 90 70 81 42 335 305 131 83 70 52 18 74 105 126 72 57 138 149 145 134 129 122 128 138 135 138 137 127 117 148 135 114 114 107 90 71 42 19 1 348 344 344 347 347 344 342 342 339 335 329 328 327
63 100 127 114 125 195 287 62 61 62 43 45 41 72 103 99 106 206 181 153 149 129 142 144 137 141 138 134 132 127 124 140 141 131 116 97 65 39 21 0 348 341 344 346 351 350 346 340 336 338 335 332 333 336
94 109 117 115 125 158 187 127 83 93 57 59 39 13 23 60 140 162 179 178 176 168 156 146 141 137 134 132 129 128 125 124 122 111 95 69 17 18 349 331 336 348 360 15 9 360 358 357 354 351 349 349 348 350